RH
23 26 30 28 34 40 49 46 45 44 39 36 35 34 32 28 33 36 27 29 28 19 13 11 7 12 11 11 19 24 38 32 27 26 28 26 25 34 53 48 46 54 53 44 49
24 33 32 36 39 56 54 48 47 40 35 36 37 42 42 44 37 27 31 38 51 26 21 15 11 21 14 19 22 29 34 38 23 24 21 24 22 24 36 25 25 52 53 53 50
30 39 44 43 49 58 64 61 59 52 48 41 46 47 51 50 59 46 31 43 74 62 35 32 32 42 24 23 27 30 35 30 25 20 20 24 22 21 20 19 31 45 47 54 49
40 48 55 54 55 58 63 63 70 69 63 52 51 52 60 61 66 75 66 46 74 66 58 57 70 81 47 31 27 43 32 28 27 24 21 24 31 25 28 36 49 40 53 51 37
51 59 58 52 54 58 61 64 81 64 63 69 62 65 73 83 98 92 95 77 91 66 62 76 79 99 65 35 53 42 44 33 33 26 23 22 31 22 34 41 44 39 46 37 28
58 63 48 47 57 67 86 80 86 78 66 73 68 79 92 91 92 95 85 96 84 80 74 84 96 96 85 67 65 55 43 40 37 26 22 20 17 24 28 29 37 43 39 33 26
61 61 42 51 65 74 87 96 92 91 80 97 81 91 98 99 92 83 82 96 90 72 97 100 98 100 83 65 64 55 50 45 35 24 19 16 20 16 20 24 35 42 35 30 25
56 43 41 50 60 67 72 86 93 82 85 98 95 89 98 99 87 74 93 96 98 76 86 98 89 91 78 72 60 52 50 44 30 24 17 21 22 24 15 18 30 36 36 28 23
34 38 45 54 63 64 68 67 83 76 80 93 87 100 82 82 95 74 72 85 85 84 82 83 92 81 82 71 60 56 49 38 30 21 19 26 28 33 19 26 34 36 36 25 19
36 47 53 58 63 66 67 66 70 77 77 88 97 100 95 91 83 73 74 68 76 72 74 84 81 99 78 74 68 54 42 36 34 30 24 24 42 45 34 31 34 37 32 25 20
34 46 55 60 64 63 62 62 65 67 94 95 97 99 94 89 91 83 81 91 83 87 80 73 75 90 84 66 59 48 38 31 37 29 20 21 39 39 36 34 38 33 29 22 18
34 41 53 59 61 63 64 62 61 64 81 98 90 96 97 100 97 86 82 85 78 90 96 97 91 64 69 54 50 39 34 31 42 35 25 18 39 20 22 22 30 26 20 18 19
47 42 47 56 62 64 62 61 56 61 76 93 94 94 99 98 96 89 96 100 96 98 99 98 78 86 62 56 53 43 34 40 35 34 29 37 29 39 17 17 19 20 19 19 18
46 51 52 55 58 59 55 55 59 56 80 76 92 92 93 100 95 94 91 98 98 96 98 97 89 65 57 52 49 43 36 35 33 34 33 29 40 18 12 14 15 16 14 13 12
41 46 52 55 56 56 50 44 56 54 78 66 82 88 98 98 89 95 96 89 98 93 94 79 61 60 55 47 46 43 38 32 29 35 30 29 26 24 24 14 8 11 18 17 12
34 38 44 49 51 51 40 38 42 63 70 70 76 95 94 88 90 80 83 81 78 86 72 59 55 55 48 43 46 40 40 36 41 36 52 30 26 20 21 14 15 15 20 17 14
30 30 27 33 40 40 36 34 72 67 56 66 69 79 85 66 56 57 58 62 68 63 53 50 47 45 40 37 40 40 32 43 62 54 77 29 24 18 18 16 14 13 11 10 9
27 26 21 20 23 28 35 34 54 66 66 56 62 62 53 56 46 48 57 60 50 57 50 48 56 40 34 30 36 37 42 53 68 74 68 26 19 14 14 12 14 11 9 8 9
26 23 22 20 20 27 30 35 60 55 46 48 49 51 45 46 45 43 34 42 42 54 53 44 46 36 34 28 33 38 35 29 29 36 44 17 15 12 12 10 10 10 10 10 11
24 22 21 22 22 22 22 36 42 39 38 42 50 46 46 40 46 42 43 40 41 33 44 42 42 34 29 29 26 29 25 24 33 53 48 39 20 30 12 9 9 9 10 10 10
22 21 24 26 29 29 28 35 36 36 37 37 46 49 46 42 44 43 37 33 31 28 39 41 29 35 29 28 27 26 21 22 23 27 37 38 36 9 10 9 11 11 11 11 10
18 22 27 27 27 29 31 32 32 31 31 31 32 36 39 44 44 40 36 30 27 27 28 39 31 33 30 24 27 25 26 23 27 24 22 20 23 20 14 14 13 12 10 10 11
19 18 22 27 29 29 32 32 31 31 29 28 33 34 30 35 44 29 27 27 25 23 25 29 34 27 26 22 21 21 19 18 21 21 23 27 23 13 15 14 12 11 12 12 10
12 16 21 20 18 20 24 25 31 31 31 30 31 32 33 29 29 28 26 25 25 22 20 26 37 35 36 39 31 21 19 21 24 23 27 23 21 24 27 22 22 15 14 21 24
12 11 15 25 26 18 16 17 17 23 30 30 28 28 29 38 29 25 23 21 20 20 19 18 19 17 17 19 19 20 17 18 18 23 21 25 22 21 16 13 24 30 30 29 28
24 10 11 15 23 29 26 19 14 16 17 26 28 28 28 25 25 25 25 22 19 17 19 20 20 19 18 17 17 17 17 17 17 17 16 16 10 15 29 31 34 36 36 37 38
42 18 11 10 13 18 21 26 28 20 15 16 17 17 18 17 16 15 14 14 13 12 11 10 10 12 23 22 28 29 24 20 16 15 13 15 29 30 32 34 39 38 37 37 37
Wind_Speed
15 17 22 21 21 21 19 15 16 18 19 20 24 24 23 24 28 31 36 34 33 31 28 26 25 31 36 40 39 36 31 33 32 26 19 24 30 20 24 22 22 21 24 12 10
14 15 18 18 19 18 18 14 14 15 17 17 17 17 18 20 23 32 28 30 29 31 28 28 26 29 37 38 40 41 43 30 33 28 21 22 29 25 25 24 20 20 22 18 14
15 14 15 16 17 15 14 16 12 9 12 15 14 15 16 18 20 25 26 29 27 24 28 28 25 28 35 37 42 42 37 25 17 29 30 19 27 26 23 23 21 20 21 18 16
15 14 14 14 17 17 16 16 15 12 13 13 13 13 14 17 9 14 21 28 24 28 28 27 27 25 31 39 39 28 35 33 24 25 28 23 21 25 19 18 22 25 21 20 17
14 14 14 15 18 21 20 17 15 17 17 12 11 10 6 12 16 10 12 21 26 29 31 27 29 24 31 36 24 32 14 25 27 26 27 29 22 20 25 23 24 21 18 19 17
11 13 14 17 21 23 24 21 18 18 15 10 9 7 6 12 18 10 10 19 24 25 26 28 25 21 20 18 25 26 19 28 22 28 30 29 23 23 26 27 24 20 19 18 17
10 10 14 17 24 27 21 21 19 22 19 5 6 6 9 9 14 7 11 18 24 27 22 26 23 24 16 22 23 10 16 27 26 31 28 28 26 27 23 24 24 22 19 18 17
8 8 10 15 21 23 21 23 22 19 19 14 4 8 12 12 9 10 5 20 19 24 27 23 28 29 22 23 21 25 24 22 31 32 27 27 24 27 23 21 23 22 20 18 18
7 7 7 12 17 20 25 24 21 22 16 11 8 16 11 12 13 16 12 10 13 18 20 23 30 30 23 21 23 24 23 29 29 32 29 24 13 17 24 20 22 21 20 18 17
5 5 7 11 13 16 20 20 22 23 25 8 12 2 12 17 15 14 16 14 15 16 17 16 24 24 27 21 22 27 26 30 28 34 28 24 11 16 18 23 22 21 20 18 18
4 5 5 8 10 12 18 20 19 22 25 15 14 15 4 18 15 18 18 19 18 18 17 22 20 21 22 26 23 24 26 30 17 24 27 27 14 14 15 22 24 22 21 19 19
10 8 9 8 10 16 23 23 12 14 20 22 15 15 18 4 18 20 16 18 17 21 20 19 28 27 17 25 22 26 29 28 20 17 25 24 20 22 18 15 20 21 21 21 21
12 14 15 16 16 17 25 17 4 8 9 17 13 14 17 13 9 10 18 20 20 24 26 29 24 18 25 22 22 28 25 26 25 22 19 19 20 22 20 19 19 20 22 23 23
12 13 16 18 18 21 15 7 4 4 3 13 19 13 7 9 10 8 17 7 8 22 25 7 18 21 24 19 15 20 18 22 21 30 10 17 3 19 21 20 20 18 19 20 20
14 11 11 11 12 8 7 5 3 1 3 8 14 15 16 10 8 7 17 15 11 24 11 8 15 19 17 18 14 7 20 22 19 18 12 17 2 3 12 20 21 23 22 21 22
14 13 11 9 6 4 3 4 4 2 3 7 8 4 14 14 15 15 15 12 11 4 3 12 17 15 20 19 14 15 18 19 17 14 3 12 9 8 15 13 14 19 25 27 27
14 13 14 11 6 3 3 2 3 6 4 3 8 9 12 7 10 10 8 5 5 5 17 14 12 11 13 12 13 22 26 9 3 1 4 14 12 7 12 11 12 19 22 25 25
15 13 13 15 11 8 7 7 8 6 4 6 6 8 3 6 6 6 5 4 5 8 14 6 6 12 10 13 13 19 13 4 6 5 4 11 9 7 15 19 17 15 18 17 15
14 13 12 10 12 10 9 9 4 5 8 8 7 2 6 6 4 3 2 2 5 9 2 6 5 9 12 12 13 12 5 5 8 8 5 6 3 5 8 9 8 9 13 14 13
12 11 13 14 12 10 10 9 6 8 2 4 7 6 4 2 4 3 4 4 10 2 6 9 10 9 10 9 10 9 7 3 3 4 3 4 3 2 1 1 0 1 3 4 5
9 9 10 10 10 9 10 8 5 2 1 4 6 4 7 5 4 4 4 4 3 2 11 10 6 9 11 6 8 10 6 2 4 3 3 4 1 4 3 2 3 3 1 3 9
9 8 6 4 4 7 9 8 7 6 6 5 5 5 4 4 3 3 2 2 5 5 9 8 10 12 10 5 9 11 6 5 1 2 5 4 3 1 4 4 1 3 7 13 20
6 8 6 3 3 5 5 5 5 3 2 2 5 6 9 7 4 2 3 5 5 2 4 8 7 8 3 4 9 10 10 11 6 6 4 3 3 7 4 3 9 14 19 25 28
6 5 4 4 3 3 4 5 4 3 2 2 3 3 6 8 6 4 4 4 5 7 8 9 9 6 6 4 8 9 12 11 8 4 3 3 2 4 6 12 16 22 22 20 22
6 4 4 3 4 3 3 3 3 2 3 2 2 3 2 2 4 4 4 4 5 5 5 5 4 3 3 4 3 5 7 9 11 9 7 7 7 11 18 19 15 16 16 16 16
5 4 3 2 3 3 3 3 3 2 1 2 2 2 3 3 2 2 1 2 3 3 3 4 3 2 2 4 5 6 8 9 10 12 14 13 13 13 10 11 12 13 14 15 16
7 5 4 2 2 2 3 3 2 2 1 1 1 1 2 2 2 2 2 2 2 1 1 1 2 1 1 1 4 6 5 10 8 6 8 8 9 9 12 12 12 13 19 22 23
Wind_Direction
307 317 319 311 306 309 309 306 299 295 294 291 289 287 276 260 252 245 246 239 234 231 223 221 218 215 210 208 200 200 205 211 205 201 213 227 234 211 200 214 217 217 238 233 236
321 328 324 318 312 314 300 296 298 305 305 300 293 290 280 265 255 247 238 231 228 227 220 218 216 212 211 208 198 196 210 210 209 196 211 229 234 230 210 222 231 219 233 238 246
326 332 330 327 329 320 319 319 315 317 316 308 302 290 281 269 255 254 229 219 219 214 214 212 213 213 211 208 201 199 210 193 197 210 222 231 232 236 221 229 230 228 231 236 248
328 336 343 347 345 342 335 322 313 309 318 320 306 284 274 259 242 253 223 220 213 205 210 206 201 210 210 210 206 201 209 188 214 214 208 205 209 232 208 224 219 222 226 238 248
340 349 359 356 4 360 349 332 327 330 314 301 291 276 258 216 211 228 229 217 210 202 205 204 203 201 210 211 201 211 204 194 220 211 205 211 208 223 204 214 225 234 230 240 242
357 4 18 18 15 12 6 8 2 342 332 277 262 254 222 214 216 232 237 210 204 197 201 202 205 193 217 191 196 216 182 219 205 198 208 215 215 211 212 217 224 227 231 238 238
9 20 30 29 28 18 20 15 8 358 359 297 232 219 194 211 227 186 190 199 195 201 194 198 179 185 182 187 207 210 191 214 199 194 211 214 215 217 218 219 223 228 233 237 238
30 46 42 30 26 17 22 19 12 7 359 359 251 231 216 212 197 173 186 194 187 200 209 199 197 182 187 185 186 190 206 199 198 201 203 207 218 218 222 222 222 226 231 238 241
68 51 46 36 28 18 23 11 9 17 7 4 347 232 235 219 214 200 213 201 207 200 209 205 198 185 181 182 186 200 190 196 199 202 204 199 210 223 222 220 221 226 231 237 238
65 41 32 35 33 21 11 3 4 8 11 6 8 192 222 207 213 202 182 194 202 205 205 198 225 173 184 180 194 192 197 193 201 193 198 191 205 206 213 217 223 226 232 239 242
296 343 1 21 19 25 7 355 356 0 14 49 50 51 265 223 220 209 193 187 198 199 208 202 206 182 184 175 182 190 200 190 202 198 203 195 196 194 211 215 223 230 237 242 248
277 288 314 323 348 347 344 349 329 351 21 35 61 51 43 152 203 204 209 223 218 210 205 203 199 184 180 176 183 204 213 191 177 191 191 198 196 227 226 225 227 236 243 248 250
309 286 293 306 309 321 333 335 340 335 11 21 49 48 42 63 107 209 195 202 195 195 177 169 173 189 187 190 220 224 228 186 183 179 177 190 206 222 226 225 226 233 239 247 253
341 311 300 301 305 321 341 347 253 329 330 3 8 36 44 44 32 55 150 172 124 139 148 163 165 181 178 179 212 231 186 177 185 171 164 185 205 230 238 228 229 230 236 243 253
358 342 335 330 321 338 360 31 43 346 45 11 2 27 46 51 74 85 120 95 66 164 138 126 155 174 174 178 204 148 157 181 176 164 148 182 202 283 217 226 233 234 239 246 251
11 4 358 346 352 12 46 74 69 56 30 21 29 42 38 37 85 74 77 86 84 107 171 157 144 155 173 183 184 155 144 138 145 156 115 170 188 192 204 248 244 238 241 243 249
21 21 19 17 25 32 93 86 55 59 21 43 62 73 47 49 42 76 88 125 110 128 128 133 137 150 173 182 185 147 137 134 78 107 184 174 189 197 197 217 238 247 247 249 254
23 29 33 37 46 66 75 71 64 38 52 106 79 67 61 64 51 55 43 43 114 124 127 119 145 149 145 175 171 168 212 181 149 166 188 171 211 217 235 251 240 241 257 261 269
24 37 42 43 48 58 75 70 85 96 87 61 49 35 13 83 99 39 7 267 139 158 131 129 113 146 157 171 170 181 195 165 106 112 114 181 203 220 233 243 242 252 261 271 278
29 49 57 60 56 63 79 88 109 125 69 59 24 43 14 44 29 17 30 76 145 157 154 103 114 142 159 178 204 184 164 136 104 116 135 202 163 183 187 30 133 290 305 304 298
28 48 57 68 60 52 66 82 89 60 44 72 88 30 8 6 43 21 69 130 307 175 135 109 147 145 152 174 192 183 198 96 108 83 127 131 176 115 105 74 329 290 224 293 309
24 52 48 15 9 49 63 70 74 74 94 77 36 29 39 52 38 76 75 85 96 128 116 110 123 129 174 192 202 189 186 157 345 126 94 92 142 203 286 292 140 232 278 296 300
13 37 40 37 35 45 52 61 65 76 53 22 39 46 32 40 64 48 63 65 64 49 112 120 123 111 143 211 210 204 200 202 169 154 148 140 112 92 112 227 249 266 289 299 301
3 19 41 40 23 8 27 47 65 43 47 63 45 30 51 33 44 59 54 46 50 62 74 111 123 140 155 166 182 205 210 203 188 146 165 170 211 165 273 292 295 301 306 313 312
346 2 22 27 43 43 45 40 38 51 65 24 39 44 45 73 51 58 55 58 48 49 56 91 111 125 105 135 168 182 189 204 215 193 191 190 231 265 283 293 300 312 318 319 318
315 321 328 8 38 48 45 33 32 56 51 76 81 49 43 43 56 51 32 41 68 92 111 113 125 162 220 235 242 242 245 248 241 240 252 260 273 276 289 307 310 315 319 318 318
277 282 285 298 341 360 38 21 24 51 41 42 28 25 61 48 19 354 336 328 323 337 14 147 159 252 237 293 280 277 237 241 252 258 250 248 254 279 290 292 300 308 311 313 311